Regional Weather Roundup
Issued by NWS Cleveland, OH

Home | Current Version | Previous Version | Graphics & Text | Print | Product List | Glossary On
Versions: 1 2 3 4 5 6 7 8 9 10 11 12 13 14 15 16 17 18 19 20 21 22 23 24 25 26 27 28 29 30 31 32 33 34 35 36 37 38 39 40 41 42 43 44 45 46 47 48 49 50
000
ASUS41 KCLE 300310
RWRCLE
OHIO REGIONAL WEATHER ROUNDUP
NATIONAL WEATHER SERVICE CLEVELAND, OH
1100 PM EDT THU SEP 29 2016

NOTE: "FAIR" INDICATES FEW OR NO CLOUDS BELOW 12,000 FEET WITH NO
SIGNIFICANT WEATHER AND/OR OBSTRUCTIONS TO VISIBILITY.

OHZ001>008-015>018-024>027-034-035-043-044-300400-
   NORTHWEST OHIO

CITY           SKY/WX    TMP DP  RH WIND       PRES   REMARKS
DEFIANCE       CLOUDY    62  58  86 NE9       30.12S
FINDLAY        CLOUDY    59  56  89 N6        30.09F FOG
TOLEDO EXPRESS CLOUDY    61  61 100 NE10      30.13R
TOLEDO EXEC    CLOUDY    64  61  90 E8        30.14R
LIMA           PTCLDY    57  57 100 N3        30.09F FOG
$$

OHZ009>014-019>023-028>033-038-089-300400-
   NORTHEAST OHIO

CITY           SKY/WX    TMP DP  RH WIND       PRES   REMARKS
CLE-HOPKINS    LGT RAIN  63  58  83 E12       30.19R
CLE-LAKEFRONT  RAIN      63  59  87 E13G24    30.17R FOG
CUY CO. ARPT   RAIN      61  61 100 E12       30.19R FOG
LORAIN-ELYRIA  NOT AVBL
ASHTABULA      RAIN      59  59 100 E8        30.23R
AKRON-CANTON   RAIN      60  57  89 E13       30.15F FOG
WOOSTER        LGT RAIN  60  58  92 E17       30.12F
MANSFIELD      CLOUDY    60  59  96 E9        30.11S
YOUNGSTOWN     LGT RAIN  58  56  93 E12       30.18F
$$

OHZ042-051>053-060>062-070>072-077>081-300400-
  SOUTHWEST OHIO

CITY           SKY/WX    TMP DP  RH WIND       PRES   REMARKS
CINC-COVINGTON CLOUDY    59  57  93 NW6       30.07F
CINC-LUNKEN    CLOUDY    58  58 100 CALM      30.08S
HAMILTON       CLOUDY    59  53  80 N3        30.08F
DAYTON         CLOUDY    58  56  93 N7        30.09S
WRIGHT-PAT AFB CLOUDY    59  59  97 NE9       30.08R
DAYTON GENERAL CLOUDY    58  54  86 NE5       30.07S
WILMINGTON     LGT RAIN  57  56  96 N6        30.07S
$$

OHZ036-037-039>041-045>050-054>059-063>069-073>076-082>088-300400-
  CENTRAL AND SOUTHEAST OHIO

CITY           SKY/WX    TMP DP  RH WIND       PRES   REMARKS
COLUMBUS       LGT RAIN  61  61 100 NE9       30.06F
OSU AIRPORT    LGT RAIN  60  60 100 NE5       30.08S
BOLTON FIELD   CLOUDY    60  59  97 E7        30.07F
RICKENBACK AFB CLOUDY    59  59 100 SE3       30.08R
NEWARK         LGT RAIN  61  59  93 N5        30.07F
MARION         CLOUDY    58  57  97 N5        30.10S FOG
LANCASTER      CLOUDY    60  60 100 SW3       30.07F
ZANESVILLE     MOCLDY    60  59  96 N6        30.08S
NEW PHILLY     LGT RAIN  62  60  93 NE14G22   30.10F
$$




USA.gov is the U.S. government's official web portal to all federal, state and local government web resources and services.